Date String (YYYY-MM-DD hh:mm:ss) UTC,Instrument flags,Ambient pressure (hPa),Sample flow (lpm),Bypass flow (lpm),Sample temperature (°C),Ambient temperature (°C),ASC tube jacket temperature (°C),LED temperature (°C),Box temperature (°C),Sample RH (%),Span deviation,Mass concentration (μg/m³),Mass concentration (μg/m³),Mass concentration (μg/m³)
DateTimeUTC,F1_M11,P_M11,Q1_M11,Q2_M11,T1_M11,T2_M11,T3_M11,T4_M11,T5_M11,U1_M11,ZSPAN_M11,X0_M11,X2_M11,X1_M11
2023-02-09 03:00:00,,0822.8,4.99,0.00,22.2,21.0,00.0,31.1,24.0,17.1,0000.0,0001.75,0000.94,0000.60
2023-02-09 03:01:00,,0822.7,5.00,0.00,22.2,20.9,00.0,31.1,23.9,16.9,0000.0,0002.74,0000.96,0000.60
2023-02-09 03:02:00,,0822.7,5.01,0.00,22.2,20.8,00.0,31.1,23.9,16.4,0000.0,0003.07,0000.95,0000.61
2023-02-09 03:03:00,,0822.7,4.99,0.00,22.2,20.7,00.0,31.1,23.8,16.2,0000.0,0003.17,0000.96,0000.60
2023-02-09 03:04:00,,0822.7,4.99,0.00,22.1,20.6,00.0,31.1,23.8,16.1,0000.0,0003.25,0000.99,0000.61
2023-02-09 03:05:00,,0822.7,5.01,0.00,22.1,20.6,00.0,31.1,23.8,16.2,0000.0,0003.25,0001.00,0000.62
2023-02-09 03:06:00,,0822.7,4.99,0.00,22.1,20.6,00.0,31.0,23.7,16.1,0000.0,0003.29,0001.03,0000.63
2023-02-09 03:07:00,,0822.7,4.99,0.00,22.1,20.5,00.0,31.0,23.7,16.2,0000.0,0003.37,0001.06,0000.65
2023-02-09 03:08:00,,0822.7,5.03,0.00,22.0,20.4,00.0,31.0,23.6,16.4,0000.0,0003.40,0001.08,0000.66
2023-02-09 03:09:00,,0822.7,5.01,0.00,22.0,20.2,00.0,31.0,23.6,16.1,0000.0,0003.42,0001.10,0000.69
2023-02-09 03:10:00,,0822.8,5.02,0.00,21.9,20.0,00.0,31.0,23.5,16.1,0000.0,0004.00,0001.12,0000.70
2023-02-09 03:11:00,,0822.7,5.01,0.00,21.9,19.9,00.0,31.0,23.4,15.9,0000.0,0004.15,0001.11,0000.71
2023-02-09 03:12:00,,0822.7,5.00,0.00,21.8,19.9,00.0,30.9,23.3,15.8,0000.0,0003.39,0001.07,0000.72
2023-02-09 03:13:00,,0822.8,5.01,0.00,21.7,19.8,00.0,30.9,23.3,15.6,0000.0,0003.59,0001.08,0000.72
2023-02-09 03:14:00,,0822.8,5.07,0.00,21.8,20.5,00.0,30.8,23.5,15.7,0000.0,0003.50,0001.09,0000.73
2023-02-09 03:15:00,,0822.9,5.00,0.00,21.9,21.7,00.0,30.8,23.8,15.6,0000.0,0003.37,0001.07,0000.74
2023-02-09 03:16:00,,0823.0,4.96,0.00,22.0,22.5,00.0,30.8,24.1,15.5,0000.0,0003.41,0001.09,0000.74
2023-02-09 03:17:00,,0823.0,4.97,0.00,22.1,22.3,00.0,30.9,24.1,15.4,0000.0,0003.45,0001.09,0000.75
2023-02-09 03:18:00,,0823.1,5.05,0.00,22.1,21.9,00.0,30.9,24.0,15.3,0000.0,0003.56,0001.10,0000.75
2023-02-09 03:19:00,,0823.2,5.07,0.00,22.1,21.6,00.0,30.9,24.0,15.5,0000.0,0003.59,0001.12,0000.75
2023-02-09 03:20:00,,0823.3,4.92,0.00,22.1,21.4,00.0,31.0,24.0,15.4,0000.0,0003.69,0001.14,0000.75
2023-02-09 03:21:00,,0823.4,5.01,0.00,22.2,21.2,00.0,31.0,24.0,15.7,0000.0,0003.22,0001.13,0000.75
2023-02-09 03:22:00,,0823.4,5.00,0.00,22.2,21.1,00.0,31.0,24.0,15.8,0000.0,0002.93,0001.14,0000.76
2023-02-09 03:23:00,,0823.3,4.99,0.00,22.2,21.0,00.0,31.0,24.0,15.9,0000.0,0002.94,0001.15,0000.76
2023-02-09 03:24:00,,0823.4,4.97,0.00,22.2,21.0,00.0,31.0,24.0,15.7,0000.0,0002.08,0001.17,0000.78
2023-02-09 03:25:00,,0823.4,5.00,0.00,22.2,21.0,00.0,31.0,24.0,15.7,0000.0,0002.25,0001.22,0000.79
2023-02-09 03:26:00,,0823.4,5.02,0.00,22.2,21.0,00.0,31.0,24.0,15.4,0000.0,0002.42,0001.28,0000.80
2023-02-09 03:27:00,,0823.4,5.02,0.00,22.2,21.0,00.0,31.0,24.0,15.1,0000.0,0002.42,0001.29,0000.80
2023-02-09 03:28:00,,0823.5,4.99,0.00,22.2,21.0,00.0,31.0,24.0,15.1,0000.0,0002.39,0001.27,0000.80
2023-02-09 03:29:00,,0823.6,5.02,0.00,22.2,20.9,00.0,31.0,24.0,15.6,0000.0,0002.40,0001.28,0000.79
2023-02-09 03:30:00,,0823.6,4.98,0.00,22.2,20.8,00.0,31.0,24.0,16.0,0000.0,0002.41,0001.27,0000.78
2023-02-09 03:31:00,,0823.6,4.98,0.00,22.2,20.8,00.0,31.0,24.0,16.2,0000.0,0002.48,0001.24,0000.77
2023-02-09 03:32:00,,0823.6,4.98,0.00,22.2,20.7,00.0,31.0,24.0,16.3,0000.0,0002.60,0001.23,0000.75
2023-02-09 03:33:00,,0823.7,4.97,0.00,22.2,20.7,00.0,31.0,24.0,16.4,0000.0,0002.70,0001.25,0000.75
2023-02-09 03:34:00,,0823.6,5.00,0.00,22.2,20.7,00.0,31.0,24.0,16.4,0000.0,0002.79,0001.28,0000.76
2023-02-09 03:35:00,,0823.7,5.00,0.00,22.2,20.7,00.0,31.0,24.0,16.3,0000.0,0002.95,0001.31,0000.76
2023-02-09 03:36:00,,0823.7,4.99,0.00,22.2,20.8,00.0,31.0,24.0,16.3,0000.0,0002.84,0001.26,0000.75
2023-02-09 03:37:00,,0823.7,5.00,0.00,22.2,20.8,00.0,31.0,24.0,16.3,0000.0,0002.77,0001.21,0000.74
2023-02-09 03:38:00,,0823.6,5.00,0.00,22.2,20.8,00.0,31.0,24.0,16.5,0000.0,0002.75,0001.19,0000.74
2023-02-09 03:39:00,,0823.7,4.97,0.00,22.2,20.8,00.0,31.0,24.0,16.5,0000.0,0002.92,0001.25,0000.74
2023-02-09 03:40:00,,0823.7,5.02,0.00,22.2,20.8,00.0,31.0,24.0,16.4,0000.0,0002.98,0001.25,0000.75
2023-02-09 03:41:00,,0823.7,5.00,0.00,22.2,20.8,00.0,31.0,24.0,16.2,0000.0,0003.34,0001.27,0000.75
2023-02-09 03:42:00,,0823.7,5.02,0.00,22.2,20.8,00.0,31.0,24.0,16.0,0000.0,0003.10,0001.24,0000.74
2023-02-09 03:43:00,,0823.7,4.98,0.00,22.2,20.8,00.0,31.0,24.0,15.7,0000.0,0003.00,0001.24,0000.74
2023-02-09 03:44:00,,0823.7,4.99,0.00,22.2,20.8,00.0,31.0,24.0,15.9,0000.0,0003.20,0001.23,0000.73
2023-02-09 03:45:00,,0823.7,4.99,0.00,22.2,20.8,00.0,31.0,24.0,16.0,0000.0,0003.11,0001.19,0000.71
2023-02-09 03:46:00,,0823.7,5.01,0.00,22.2,20.7,00.0,31.0,24.0,15.8,0000.0,0003.09,0001.18,0000.70
2023-02-09 03:47:00,,0823.7,4.96,0.00,22.2,20.7,00.0,31.0,24.0,15.7,0000.0,0003.27,0001.24,0000.70
2023-02-09 03:48:00,,0823.7,5.03,0.00,22.2,20.7,00.0,31.0,24.0,15.1,0000.0,0003.57,0001.29,0000.70
2023-02-09 03:49:00,,0823.7,5.03,0.00,22.2,20.7,00.0,31.0,24.0,14.8,0000.0,0003.87,0001.31,0000.69
2023-02-09 03:50:00,,0823.7,5.00,0.00,22.2,20.7,00.0,31.0,24.0,15.0,0000.0,0003.75,0001.27,0000.68
2023-02-09 03:51:00,,0823.7,5.00,0.00,22.2,20.8,00.0,31.0,24.0,15.3,0000.0,0003.81,0001.24,0000.67
2023-02-09 03:52:00,,0823.7,5.01,0.00,22.2,20.7,00.0,31.0,24.0,15.8,0000.0,0004.64,0001.23,0000.67
2023-02-09 03:53:00,,0823.8,4.98,0.00,22.2,20.8,00.0,31.0,24.0,15.9,0000.0,0004.76,0001.27,0000.68
2023-02-09 03:54:00,,0823.8,5.00,0.00,22.2,20.7,00.0,31.0,24.0,15.9,0000.0,0005.59,0001.27,0000.69
2023-02-09 03:55:00,,0823.8,4.99,0.00,22.2,20.7,00.0,31.0,24.0,15.8,0000.0,0005.82,0001.28,0000.69
2023-02-09 03:56:00,,0823.7,4.98,0.00,22.2,20.7,00.0,31.0,23.9,15.8,0000.0,0005.82,0001.29,0000.69
2023-02-09 03:57:00,,0823.7,5.02,0.00,22.2,20.7,00.0,31.0,23.9,15.8,0000.0,0005.92,0001.30,0000.70
2023-02-09 03:58:00,,0823.7,5.02,0.00,22.2,20.7,00.0,31.0,24.0,15.7,0000.0,0005.93,0001.27,0000.69
2023-02-09 03:59:00,,0823.7,5.00,0.00,22.2,20.8,00.0,31.0,24.0,15.6,0000.0,0005.78,0001.22,0000.71
